Del Rio, TX

5:27 PM CDT on August 20, 2017 (GMT -0500)
Del Rio International

Weather History for KDRT - April, 2013

Change the Weather History Date:

Tuesday, April 2, 2013

  Actual Average Record
Temperature  
Mean Temperature 66 °F 68 °F  
Max Temperature 73 °F 81 °F 101 °F (1974)
Min Temperature 59 °F 56 °F 35 °F (2005)
Degree Days  
Heating Degree Days 0 2  
Month to date heating degree days 0 4  
Since 1 July heating degree days 985 1354  
Cooling Degree Days 1 5  
Month to date cooling degree days 11 10  
Year to date cooling degree days 198 116  
Growing Degree Days 17 (Base 50)    
Moisture  
Dew Point 63 °F    
Average Humidity 79    
Maximum Humidity 90    
Minimum Humidity 68    
Precipitation  
Precipitation 0.33 in 0.03 in 5.07 in (2017)
Month to date precipitation 0.33 0.07  
Year to date precipitation 1.72 2.81  
Sea Level Pressure  
Sea Level Pressure 29.83 in    
Wind  
Wind Speed 10 mph (ESE)    
Max Wind Speed 33 mph    
Max Gust Speed 44 mph    
Visibility 7 miles    
Events Rain    
T = Trace of Precipitation, MM = Missing Value Source: NWS Daily Summary

Daily Weather History Graph

Daily Weather History Graph

Search for Another Location

Airport or City:

Trip Planner

Search our weather history database for the weather conditions in past years. The results will help you decide how hot, cold, wet, or windy it might be!

Date:

Astronomy

Apr. 02, 2013 Rise Set
Actual Time 7:31 AM CDT 8:02 PM CDT
Civil Twilight 7:07 AM CDT 8:26 PM CDT
Nautical Twilight 6:39 AM CDT 8:54 PM CDT
Astronomical Twilight 6:11 AM CDT 9:23 PM CDT
Moon 1:51 AM CDT (4/2) 12:42 PM CDT (4/2)
Length of Visible Light 13h 18m
Length of Day
12h 31m
Waning Gibbous, 55% of the Moon is Illuminated
Apr 2
Waning Gibbous
Apr 2
Last Quarter
Apr 10
New
Apr 18
First Quarter
Apr 25
Full

Hourly Weather History & Observations

Time (CDT) Temp. Dew Point Humidity Pressure Visibility Wind Dir Wind Speed Gust Speed Precip Events Conditions
12:53 AM 73.0 °F 63.0 °F 71% 29.86 in 10.0 mi SE 10.4 mph - N/A   Clear
1:46 AM 71.6 °F 62.6 °F 73% 29.91 in 10.0 mi ESE 10.4 mph - N/A   Mostly Cloudy
1:53 AM 72.0 °F 62.1 °F 71% 29.86 in 10.0 mi ESE 9.2 mph - N/A   Overcast
2:17 AM 71.6 °F 62.6 °F 73% 29.89 in 10.0 mi ESE 16.1 mph 24.2 mph N/A   Scattered Clouds
2:53 AM 70.0 °F 62.1 °F 76% 29.83 in 10.0 mi ESE 15.0 mph - N/A   Clear
3:53 AM 69.1 °F 62.1 °F 78% 29.83 in 10.0 mi ESE 10.4 mph 19.6 mph N/A   Overcast
4:53 AM 69.1 °F 63.0 °F 81% 29.82 in 10.0 mi ESE 12.7 mph 19.6 mph N/A   Overcast
5:53 AM 69.1 °F 63.0 °F 81% 29.80 in 9.0 mi ESE 12.7 mph 18.4 mph N/A   Overcast
6:53 AM 69.1 °F 64.0 °F 84% 29.84 in 9.0 mi ESE 11.5 mph - N/A   Overcast
7:53 AM 69.1 °F 64.0 °F 84% 29.84 in 7.0 mi ESE 11.5 mph - N/A   Overcast
8:25 AM 69.8 °F 64.4 °F 83% 29.89 in 7.0 mi ESE 8.1 mph - N/A   Scattered Clouds
8:42 AM 69.8 °F 64.4 °F 83% 29.90 in 7.0 mi ESE 10.4 mph - N/A   Mostly Cloudy
8:53 AM 69.1 °F 64.0 °F 84% 29.86 in 8.0 mi ESE 11.5 mph - N/A   Mostly Cloudy
9:53 AM 70.0 °F 63.0 °F 78% 29.88 in 8.0 mi ESE 11.5 mph - N/A   Overcast
10:53 AM 71.1 °F 63.0 °F 75% 29.88 in 8.0 mi ESE 9.2 mph 18.4 mph N/A   Overcast
11:53 AM 70.0 °F 64.0 °F 81% 29.87 in 6.0 mi ESE 15.0 mph - N/A   Haze
12:08 PM 69.8 °F 64.4 °F 83% 29.92 in 4.0 mi SE 13.8 mph 23.0 mph N/A   Haze
12:53 PM 69.1 °F 64.9 °F 87% 29.87 in 4.0 mi SE 10.4 mph - N/A   Overcast
1:26 PM 69.8 °F 64.4 °F 83% 29.90 in 2.5 mi SE 10.4 mph - N/A   Overcast
1:30 PM 69.8 °F 66.2 °F 88% 29.89 in 3.0 mi SE 8.1 mph - N/A   Overcast
1:53 PM 70.0 °F 64.9 °F 84% 29.84 in 7.0 mi SE 13.8 mph 18.4 mph N/A   Overcast
2:53 PM 70.0 °F 64.9 °F 84% 29.82 in 4.0 mi SE 8.1 mph - N/A   Haze
3:53 PM 70.0 °F 64.9 °F 84% 29.79 in 6.0 mi ESE 6.9 mph - N/A   Haze
4:38 PM 69.8 °F 66.2 °F 88% 29.80 in 2.5 mi East 8.1 mph - N/A   Overcast
4:53 PM 69.1 °F 66.0 °F 90% 29.76 in 2.5 mi East 10.4 mph - N/A   Overcast
5:00 PM 69.8 °F 66.2 °F 88% 29.79 in 3.0 mi East 9.2 mph - N/A   Overcast
5:07 PM 69.8 °F 66.2 °F 88% 29.79 in 4.0 mi East 9.2 mph - N/A   Overcast
5:53 PM 71.1 °F 64.9 °F 81% 29.74 in 7.0 mi East 8.1 mph - N/A   Overcast
6:53 PM 72.0 °F 64.9 °F 78% 29.76 in 7.0 mi NE 5.8 mph - 0.00 in   Overcast
7:44 PM 69.8 °F 64.4 °F 83% 29.82 in 8.0 mi NNE 8.1 mph - N/A   Overcast
7:53 PM 70.0 °F 64.9 °F 84% 29.81 in 8.0 mi North 8.1 mph - N/A   Overcast
8:13 PM 62.6 °F 57.2 °F 82% 29.86 in 2.5 mi NW 23.0 mph 43.7 mph 0.05 in Rain Heavy Rain
8:33 PM 62.6 °F 57.2 °F 82% 29.81 in 5.0 mi NNE 18.4 mph 29.9 mph 0.33 in Rain Rain
8:43 PM 62.6 °F 57.2 °F 82% 29.76 in 10.0 mi NNE 20.7 mph 32.2 mph 0.33 in Rain Light Rain
8:53 PM 64.0 °F 57.0 °F 78% 29.74 in 10.0 mi NNE 20.7 mph 39.1 mph 0.33 in   Mostly Cloudy
9:53 PM 64.9 °F 57.0 °F 75% 29.76 in 10.0 mi ESE 6.9 mph - N/A   Clear
10:53 PM 62.1 °F 57.9 °F 86% 29.78 in 10.0 mi West 6.9 mph - N/A   Clear
11:53 PM 60.1 °F 57.9 °F 93% 29.80 in 10.0 mi West 9.2 mph - N/A   Clear